Weather in Lebyazh'ye 1-e

Russia / Kurgan Oblast     55°19′37″N   66°27′24″E
temp.,
°C
wind,
m/s
gust,
m/s
humid.,
%
clouds,
%
prec.,
mm/h
press.,
hPa
HPBL,
m
18 october, mon
mon1823:00+5sw365739 0.0 102289
02:00+4sw356315 0.0 102272
05:00+4sw34745 0.0 102245
08:00+6ssw3781100 0.0 1021150
11:00+11sw5851100 0.0 1020388
14:00+14ssw5840100 0.0 1019575
17:00+12ssw4941100 0.0 1018217
20:00+10ssw61446100 0.0 1018305
19 october, tue
tue1923:00+10ssw51346100 0.0 1018297
02:00+8ssw41253100 0.0 1017210
05:00+7ssw51359100 0.0 1017236
08:00+8ssw61453100 0.0 1016293
11:00+12ssw71341100 0.0 1015545
14:00+14ssw71135100 0.0 1013815
17:00+13s61138100 0.0 1012427
20:00+10s5124798 0.0 1012291
20 october, wed
wed2023:00+9ssw4948100 0.0 1011206
02:00+8ssw3448100 0.0 101154
05:00+6sw224976 0.0 101010
08:00+6sse1148100 0.0 101010
11:00+10se223799 0.0 1009230
14:00+12se2332100 0.0 1008487
17:00+11ese3338100 0.0 100751
20:00+9se3444100 0.0 100672
21 october, thu
thu2123:00+8se3344100 0.0 100535
02:00+7se2345100 0.0 100344
05:00+7ese3348100 0.0 100247
08:00+7sse2450100 0.0 1002116
11:00+10se3560100 0.1 1002614
14:00+7sse2285100 0.6 1004203
17:00+8ese336020 0.6 100425
20:00+5s376514 0.0 1006134
22 october, fri
fri2223:00+3ssw36875 0.0 1007103
02:00+2s35815 0.0 100881
05:00+1sse35875 0.0 100890
08:000sw34916 0.0 1009101
11:00+4s45665 0.0 1008570
14:00+6ssw555315 0.0 10081138
17:00+5ssw5960100 0.0 1007314
20:00+5ssw81367100 0.0 1005910